Location: *
(48.8667°N, 2.3331°E)
Time: 07:34:20
(UTC+00:00)

STARLINK-1246 - Pass Details

Date: 09 April 2020
Orbit: 549 x 550 km, 53.0° (Epoch: 03 June)

Event Time Altitude Azimuth Distance (km) Brightness Sun altitude
Rises 20:29:39 0° 294° (WNW) 2,677 8.7 -18.0°
Reaches altitude 10° 20:31:52 10° 293° (WNW) 1,784 7.4 -18.3°
Maximum altitude 20:35:53 69° 210° (SSW) 572 3.6 -18.8°
Enters shadow 20:36:48 50° 147° (SSE) 687 3.7 -18.9°
